Probability
0 0 0 0 0 0 0 0 0 0 0 0 0 0 0 0 0 0 0 0 0 0 0 0 0 0 0 0 0 0 0 0 0 0 0 0 0 0 0 0 0 0 0 0
0 0 0 0 0 0 0 0 0 0 0 0 0 0 0 0 0 0 0 0 0 0 0 0 0 0 0 0 0 0 0 0 0 0 0 0 0 0 0 0 0 0 0 0
0 0 0 0 0 0 0 0 0 0 0 0 0 0 0 0 0 0 0 0 0 0 0 0 0 0 0 0 0 0 0 0 0 0 0 0 0 0 0 0 0 0 0 0
0 0 0 0 0 0 0 0 0 0 0 0 0 0 0 0 0 0 0 0 0 0 0 0 0 0 0 0 0 0 0 0 0 0 0 0 0 0 0 0 0 0 0 0
0 0 0 0 0 0 0 0 0 0 0 0 0 0 0 0 0 0 0 0 0 0 0 0 0 0 0 0 0 0 0 0 0 0 0 0 0 0 0 0 0 0 0 0
0 0 0 0 0 0 0 0 0 0 0 0 0 0 0 0 0 0 0 0 0 0 0 0 0 0 0 0 0 0 0 0 0 0 0 0 0 0 0 0 0 0 0 0
0 0 0 0 0 0 0 0 0 0 0 0 0 0 0 0 0 0 0 0 0 0 0 0 0 0 0 0 0 0 0 0 0 0 0 0 0 0 0 0 0 0 0 0
0 0 0 0 0 0 0 0 0 0 0 0 0 0 0 0 0 0 0 0 0 0 0 0 0 0 0 0 0 0 0 0 0 0 0 0 0 0 0 0 0 0 0 0
0 0 0 0 0 0 0 0 0 0 0 0 0 0 0 0 0 0 0 0 0 0 0 0 0 0 0 0 0 0 0 0 0 0 0 0 0 0 0 0 0 0 0 0
0 0 0 0 0 0 0 0 0 0 0 0 0 0 0 0 0 0 0 0 0 0 0 0 0 0 0 0 0 0 0 0 0 0 0 0 0 0 0 0 0 0 0 0
0 0 0 0 0 0 0 0 0 0 0 0 0 0 0 0 0 0 0 0 0 0 0 0 0 0 0 0 0 0 0 0 0 0 0 0 0 0 0 0 0 0 0 0
0 0 0 0 0 0 0 0 0 0 0 0 0 0 0 0 0 0 0 0 0 0 0 0 0 0 0 0 0 0 0 0 0 0 0 0 0 0 0 0 0 0 0 0
0 0 0 0 0 0 0 0 0 0 0 0 0 0 0 0 0 0 0 0 0 0 0 0 0 0 0 0 0 0 0 0 0 0 0 0 0 0 0 0 0 0 0 0
0 0 0 0 0 0 0 0 0 0 0 0 0 0 0 0 0 0 0 0 0 0 0 0 0 0 0 0 0 0 0 0 0 0 0 0 0 0 0 0 0 0 0 0
0 0 0 0 0 0 0 0 0 0 0 0 0 0 0 0 0 0 0 0 0 0 0 0 0 0 0 0 0 0 0 0 0 0 0 0 0 0 0 0 0 0 0 0
0 0 0 0 0 0 0 0 0 0 0 0 0 0 0 0 0 0 0 0 0 0 0 0 0 0 0 0 0 0 0 0 0 0 0 0 0 0 0 0 0 0 0 0
0 0 0 0 0 0 0 0 0 0 0 0 0 0 0 0 0 0 0 0 0 0 0 0 0 0 0 0 0 0 0 0 0 0 0 0 0 0 0 0 0 0 0 0
0 0 0 0 0 0 0 0 0 0 0 0 0 0 0 0 0 0 0 0 0 0 0 0 0 0 0 0 0 0 0 0 0 0 0 0 0 0 0 0 0 0 0 0
0 0 0 0 0 0 0 0 0 0 0 0 0 0 0 0 0 0 0 0 0 0 0 0 0 0 0 0 0 0 0 0 0 0 0 0 0 0 0 0 0 0 0 0
0 0 0 0 0 0 0 0 0 0 0 0 0 0 0 0 0 0 0 0 0 0 0 0 0 0 0 0 0 0 0 0 0 0 0 0 0 0 0 0 0 0 0 0
0 0 0 0 0 0 0 0 0 0 0 0 0 0 0 0 0 0 0 0 0 0 0 0 0 0 0 0 0 0 0 0 0 0 0 0 0 0 0 0 0 0 0 0
0 0 0 0 0 0 0 0 0 0 0 0 0 0 0 0 0 0 0 0 0 0 0 0 0 0 0 0 0 0 0 0 0 0 0 0 0 0 0 0 0 0 0 0
0 0 0 0 0 0 0 0 0 0 0 0 0 0 0 0 0 0 0 0 0 0 0 0 0 0 0 0 0 0 0 0 0 0 0 0 0 0 0 0 0 0 0 0
0 0 0 0 0 0 0 0 0 0 0 0 0 0 0 0 0 0 0 0 0 0 0 0 0 0 0 0 0 0 0 0 0 0 0 0 0 0 0 0 0 0 0 0
0 0 0 0 0 0 0 0 0 0 0 0 0 0 0 0 0 0 0 0 0 0 0 0 0 0 0 0 0 0 0 0 0 0 0 0 0 0 0 0 0 0 0 0
0 0 0 0 0 0 0 0 0 0 0 0 0 0 0 0 0 0 0 0 0 0 0 0 0 0 0 0 0 0 0 0 0 0 0 0 0 0 0 0 0 0 0 0
Wind_Speed
1 3 4 7 7 4 4 4 4 4 2 4 8 11 10 7 7 9 9 9 10 10 7 7 7 6 6 5 5 5 5 4 3 2 2 2 2 1 2 2 2 3 3 3
3 4 6 4 3 3 3 3 3 3 1 3 5 11 10 9 10 11 12 12 11 8 6 7 7 7 7 7 6 6 5 5 4 3 2 2 2 1 1 1 2 2 2 3
6 3 2 3 3 4 4 5 5 4 1 1 3 9 7 6 7 8 9 9 9 11 11 9 9 8 7 7 7 6 6 5 4 4 3 3 2 2 1 1 1 1 2 2
3 3 1 3 3 5 5 3 3 2 1 3 1 7 8 5 6 9 10 10 10 10 10 9 9 9 9 8 7 6 6 5 5 5 5 5 3 3 2 1 1 1 2 2
3 1 2 3 3 4 3 2 1 1 1 2 2 4 10 3 7 10 10 11 10 11 11 11 11 10 9 8 7 6 6 6 5 5 6 5 4 2 2 2 2 1 1 1
2 1 2 3 1 3 4 4 3 3 2 4 6 6 10 6 9 7 7 9 9 10 10 9 8 7 7 7 7 6 7 6 6 6 6 6 5 5 4 3 2 1 0 0
1 2 1 1 3 1 3 5 2 3 2 7 3 5 13 8 7 7 8 9 8 8 9 9 9 9 9 9 8 7 8 7 7 7 6 6 6 6 5 4 3 2 1 0
4 5 5 3 5 6 5 6 6 6 5 5 2 8 10 6 4 5 5 5 6 7 8 9 10 10 9 9 9 8 8 7 7 7 6 5 5 4 3 3 3 3 2 2
6 4 0 2 1 5 5 5 3 3 0 3 6 8 10 3 3 2 3 4 6 7 8 8 8 8 9 9 9 9 9 7 7 7 6 5 5 4 4 3 3 2 2 1
5 3 1 1 1 1 2 4 4 4 4 5 6 5 6 5 6 5 5 6 6 5 6 6 7 7 7 8 8 7 8 8 7 6 6 5 5 5 4 4 4 3 2 2
3 4 1 1 6 7 4 3 4 3 4 5 4 8 7 6 6 6 7 6 6 6 6 6 6 6 6 6 7 7 7 7 7 6 6 5 5 4 4 4 4 4 3 3
3 4 2 5 2 1 3 5 7 5 5 4 4 10 4 3 3 4 5 5 4 5 5 5 6 6 6 7 7 8 8 7 7 6 6 5 5 4 4 4 4 4 3 3
4 5 2 3 2 2 4 4 4 2 3 4 5 10 3 1 1 2 3 4 4 4 4 4 5 6 7 7 7 7 8 7 7 6 6 5 5 5 5 5 4 4 4 3
4 3 6 9 6 6 6 6 6 5 5 6 10 10 7 5 4 3 3 4 4 5 5 6 6 7 7 7 7 7 7 7 6 6 6 6 6 6 6 5 4 4 4 4
3 4 5 5 3 3 6 7 10 12 11 10 10 10 12 8 6 5 4 4 4 5 6 7 8 7 7 7 7 7 7 6 6 7 7 7 6 5 5 4 4 4 4 4
3 3 1 4 3 3 6 8 11 13 11 12 11 14 10 6 4 5 5 5 6 7 8 7 7 7 8 8 8 7 7 7 7 7 7 6 5 5 5 5 4 4 4 3
4 5 3 4 3 3 10 12 13 9 9 10 15 16 6 4 7 7 7 7 9 9 8 8 8 9 9 8 8 9 8 6 7 6 6 6 6 6 5 5 4 4 4 3
6 5 3 1 1 9 10 4 10 10 10 12 11 10 8 9 7 5 5 7 8 8 7 7 7 7 6 6 6 6 6 6 7 6 6 6 5 6 5 5 5 4 3 3
6 7 4 4 5 10 9 4 7 9 10 11 15 14 10 4 3 6 5 6 8 7 6 6 6 6 5 6 6 7 6 6 6 7 7 7 6 6 5 6 5 4 3 3
2 4 5 4 5 9 7 3 4 3 7 6 10 11 7 2 3 6 3 3 4 3 2 3 3 3 4 4 5 7 7 7 8 8 7 6 6 7 6 6 5 4 4 4
4 3 6 6 7 11 7 2 4 5 7 2 4 6 5 7 8 4 1 1 2 2 2 2 3 3 3 4 5 6 7 8 7 5 5 5 5 6 5 4 4 4 4 3
9 8 8 6 6 11 3 5 7 7 2 1 1 2 4 6 4 2 2 2 1 1 1 2 3 2 2 4 5 6 7 5 4 4 4 5 4 4 4 4 4 4 4 4
9 10 8 10 10 4 5 7 5 2 2 2 2 2 2 3 3 3 3 3 2 2 2 2 3 2 2 3 5 6 5 3 4 4 4 4 3 3 4 4 4 4 4 4
5 3 4 6 9 7 6 5 4 4 5 4 3 3 3 4 4 4 3 3 3 2 2 2 3 3 3 3 3 4 3 4 5 5 4 4 3 3 2 3 4 4 5 4
7 5 5 8 8 5 6 7 8 7 6 5 5 4 5 4 5 4 4 4 4 3 2 3 4 4 4 3 2 2 3 4 4 4 4 3 3 4 3 3 3 4 5 6
7 8 9 9 7 5 6 5 5 6 7 6 6 5 4 5 6 5 5 4 4 3 2 3 3 4 3 3 3 2 3 5 5 4 4 3 3 3 3 2 2 4 5 7
Wind_Direction
106 104 194 204 198 199 180 185 226 244 226 197 233 253 254 230 221 228 225 216 216 217 207 187 180 172 164 162 162 161 151 148 143 139 133 120 102 71 57 57 53 50 46 48
76 235 231 210 197 197 208 221 243 275 236 212 260 267 259 230 222 221 219 217 215 209 191 188 181 176 175 174 174 169 167 164 162 158 145 130 126 117 94 59 50 50 51 48
182 230 223 177 179 197 228 214 218 223 298 305 308 291 259 246 225 227 221 215 208 202 197 193 187 185 180 181 181 177 175 168 161 142 124 109 88 81 76 46 37 38 55 54
215 259 190 166 194 182 226 218 191 182 169 274 175 285 276 243 245 232 225 214 209 203 196 192 188 187 187 188 180 177 172 166 161 154 155 151 153 159 171 169 156 62 53 52
225 208 171 197 206 173 191 120 129 179 172 289 220 242 276 249 248 241 226 215 210 202 194 192 191 190 187 181 175 176 169 165 164 164 164 160 159 154 135 130 128 108 70 62
228 245 205 200 180 160 130 71 45 39 75 260 216 201 271 227 223 232 219 211 206 197 193 192 187 179 177 174 173 171 169 171 168 167 168 168 165 157 146 147 149 156 146 79
292 275 246 146 116 117 121 105 48 349 310 248 199 209 251 245 229 220 217 214 205 190 184 183 181 181 180 178 179 176 174 175 173 170 171 174 171 166 167 168 171 168 164 200
178 242 214 193 177 174 186 161 172 202 229 268 230 234 254 261 255 235 217 200 188 186 185 186 187 185 182 181 180 179 179 176 175 174 174 174 170 170 174 171 170 179 190 202
183 223 249 195 189 154 163 201 184 143 101 277 258 268 292 267 257 229 193 179 192 192 190 189 186 184 182 181 184 182 177 175 177 176 170 169 174 175 173 170 169 181 193 188
158 186 248 227 117 261 179 153 129 152 180 247 274 258 251 242 237 229 213 206 206 197 193 189 184 184 186 185 181 176 176 179 178 175 177 176 180 181 176 171 179 185 190 189
139 148 220 198 201 194 170 180 175 169 185 187 255 264 232 226 221 217 222 214 203 197 194 191 189 184 177 171 170 174 177 177 178 179 178 177 181 179 177 184 192 190 186 188
156 134 203 236 247 258 211 199 172 180 221 211 226 267 270 240 232 210 216 212 200 195 193 187 180 173 172 176 178 181 182 183 184 180 177 182 180 178 184 196 199 190 190 196
144 132 103 334 302 267 242 222 200 172 157 188 205 262 303 336 271 220 210 212 201 192 188 183 180 183 185 185 185 187 188 187 182 175 177 181 184 185 193 200 199 194 194 199
125 161 189 206 222 184 213 221 197 172 196 220 228 250 280 274 261 258 242 221 207 203 196 192 195 196 194 192 189 189 191 186 179 177 181 189 194 195 197 197 194 195 195 198
132 206 231 257 277 212 222 219 206 210 213 216 240 240 253 253 243 240 236 224 209 213 210 205 203 201 196 194 194 192 189 184 180 181 189 197 197 195 192 192 193 195 196 201
140 184 217 275 275 265 262 239 219 226 232 240 261 266 258 261 254 252 234 216 218 225 221 214 208 202 200 198 196 192 191 187 181 188 196 192 187 188 192 194 191 190 197 201
165 153 163 257 295 334 267 226 203 210 215 207 232 248 259 252 239 236 231 222 222 223 221 215 211 208 206 200 192 192 191 180 179 188 191 188 186 191 195 191 188 196 202 200
168 161 167 185 93 238 245 201 194 209 229 219 234 252 245 239 246 247 231 221 230 229 225 221 216 212 206 197 189 182 173 174 180 186 190 189 190 196 193 188 197 204 199 200
183 165 159 165 225 271 287 231 178 198 249 224 232 250 257 262 300 278 244 226 229 227 221 218 210 204 194 188 181 168 172 175 182 193 196 194 192 194 193 198 204 202 195 206
171 161 160 174 203 239 250 233 178 143 269 237 215 236 244 162 230 263 258 223 232 232 209 195 178 162 168 178 166 167 178 182 196 201 200 193 190 192 197 203 202 197 194 206
170 188 197 201 229 256 257 242 134 180 247 265 199 218 199 193 218 249 251 220 208 201 188 164 155 166 179 166 161 175 183 201 204 191 184 187 190 193 196 197 194 186 191 195
180 183 195 179 217 249 219 141 187 223 290 300 238 212 207 225 247 246 232 225 200 180 155 150 159 183 174 164 169 186 204 205 175 171 179 187 189 187 184 184 189 184 184 196
205 196 190 198 219 249 183 199 223 229 247 249 236 244 225 236 250 255 245 234 222 200 186 169 172 185 187 181 181 198 210 172 161 169 183 184 182 188 182 182 186 185 188 202
240 215 206 247 257 256 243 248 256 243 244 252 241 235 219 235 248 250 243 237 228 220 202 182 174 192 211 204 202 208 189 164 165 178 184 177 176 185 186 191 193 196 200 206
222 190 219 252 268 284 262 240 247 253 254 253 254 244 235 233 246 240 241 238 231 230 219 192 196 209 222 209 207 196 172 162 172 181 184 183 185 187 196 206 210 213 219 209
209 195 200 231 228 221 250 249 243 243 250 244 244 260 254 231 241 240 238 236 228 224 218 215 219 219 223 208 209 197 178 172 172 184 191 191 191 192 195 203 247 239 238 241